Location: Le Vaud
(46.4779°N, 6.2346°E)
Time: 10:41:35
(UTC+00:00)

NOSS 3-1 (A) - Pass Details

Date: 18 February 2020
Orbit: 761 x 1452 km, 63.4° (Epoch: 26 March)

Event Time Altitude Azimuth Distance (km) Brightness Sun altitude
Exits shadow 02:56:37 62° 31° (NNE) 1,413 4.3 -37.6°
Maximum altitude 02:57:02 62° 45° (NE) 1,412 4.3 -37.5°
Drops below altitude 10° 03:05:28 10° 126° (SE) 3,468 6.6 -36.2°
Sets 03:08:34 0° 129° (SE) 4,491 7.3 -35.7°
